Location: C.E.K. Mees Observatory
(42.7003°N, 77.4088°W)
Time: 05:03:52
(UTC-04:00)

N. Korean satellite - Pass Details

Date: 11 October 2017
Orbit: 459 x 517 km, 97.2° (Epoch: 18 October)

Event Time Altitude Azimuth Distance (km) Brightness Sun altitude
Rises 18:59:26 0° 160° (SSE) 2,560 10.1 -5.6°
Reaches altitude 10° 19:01:31 10° 158° (SSE) 1,673 9.1 -6.0°
Maximum altitude 19:05:05 65° 76° (ENE) 533 6.5 -6.6°
Drops below altitude 10° 19:08:36 10° 354° (N) 1,654 9.3 -7.3°
Sets 19:10:39 0° 352° (N) 2,528 10.3 -7.6°
